Time,TemperatureF,DewpointF,PressureIn,WindDirection,WindDirectionDegrees,WindSpeedMPH,WindSpeedGustMPH,Humidity,HourlyPrecipIn,Conditions,Clouds,dailyrainin,SoftwareType,DateUTC
2013-05-02 00:01:00,67.0,64.6,30.03,East,79,3.0,5.0,92,0.00,,,0.00,WeatherCatV1.15B25,2013-05-02 05:01:00,
2013-05-02 00:06:00,67.0,64.6,30.03,East,96,3.0,7.0,92,0.00,,,0.00,WeatherCatV1.15B25,2013-05-02 05:06:00,
2013-05-02 00:11:00,67.1,64.7,30.03,East,81,2.0,6.0,92,0.00,,,0.00,WeatherCatV1.15B25,2013-05-02 05:11:00,
2013-05-02 00:16:00,67.1,64.4,30.03,East,95,6.0,7.0,91,0.00,,,0.00,WeatherCatV1.15B25,2013-05-02 05:16:00,
2013-05-02 00:21:00,67.1,64.4,30.03,ENE,75,2.0,5.0,91,0.00,,,0.00,WeatherCatV1.15B25,2013-05-02 05:21:00,
2013-05-02 00:26:00,67.1,64.4,30.03,ENE,75,2.0,5.0,91,0.00,,,0.00,WeatherCatV1.15B25,2013-05-02 05:26:00,
2013-05-02 00:31:00,67.1,64.1,30.03,ENE,74,4.0,8.0,90,0.00,,,0.00,WeatherCatV1.15B25,2013-05-02 05:31:00,
2013-05-02 00:36:00,67.1,64.1,30.03,East,98,6.0,7.0,90,0.00,,,0.00,WeatherCatV1.15B25,2013-05-02 05:36:00,
2013-05-02 00:41:00,67.1,64.1,30.03,East,96,5.0,6.0,90,0.00,,,0.00,WeatherCatV1.15B25,2013-05-02 05:41:00,
2013-05-02 00:46:00,67.1,64.1,30.03,East,89,5.0,6.0,90,0.00,,,0.00,WeatherCatV1.15B25,2013-05-02 05:46:00,
2013-05-02 00:51:00,67.0,63.6,30.03,East,94,7.0,8.0,89,0.00,,,0.00,WeatherCatV1.15B25,2013-05-02 05:51:00,
2013-05-02 00:56:00,67.0,63.6,30.02,ESE,102,4.0,9.0,89,0.00,,,0.00,WeatherCatV1.15B25,2013-05-02 05:56:00,
2013-05-02 01:01:00,67.0,63.3,30.02,ESE,119,4.0,9.0,88,0.00,,,0.00,WeatherCatV1.15B25,2013-05-02 06:01:00,
2013-05-02 01:06:00,67.0,63.3,30.03,East,101,6.0,7.0,88,0.00,,,0.00,WeatherCatV1.15B25,2013-05-02 06:06:00,
2013-05-02 01:11:00,67.0,63.3,30.03,East,95,6.0,7.0,88,0.00,,,0.00,WeatherCatV1.15B25,2013-05-02 06:11:00,
2013-05-02 01:16:00,66.9,63.2,30.02,ESE,113,2.0,8.0,88,0.00,,,0.00,WeatherCatV1.15B25,2013-05-02 06:16:00,
2013-05-02 01:21:00,66.8,63.1,30.03,East,90,5.0,5.0,88,0.00,,,0.00,WeatherCatV1.15B25,2013-05-02 06:21:00,
2013-05-02 01:26:00,66.7,63.0,30.02,ESE,109,4.0,7.0,88,0.00,,,0.00,WeatherCatV1.15B25,2013-05-02 06:26:00,
2013-05-02 01:31:00,66.6,63.2,30.02,ENE,65,5.0,6.0,89,0.00,,,0.00,WeatherCatV1.15B25,2013-05-02 06:31:00,
2013-05-02 01:36:00,66.6,63.2,30.02,ENE,74,4.0,6.0,89,0.00,,,0.00,WeatherCatV1.15B25,2013-05-02 06:36:00,
2013-05-02 01:41:00,66.5,63.2,30.02,East,89,5.0,6.0,89,0.00,,,0.00,WeatherCatV1.15B25,2013-05-02 06:41:00,
2013-05-02 01:46:00,66.5,62.8,30.02,ESE,108,3.0,6.0,88,0.00,,,0.00,WeatherCatV1.15B25,2013-05-02 06:46:00,
2013-05-02 01:51:00,66.5,62.8,30.02,ENE,76,4.0,7.0,88,0.00,,,0.00,WeatherCatV1.15B25,2013-05-02 06:51:00,
2013-05-02 01:56:00,66.5,62.8,30.01,East,91,6.0,7.0,88,0.00,,,0.00,WeatherCatV1.15B25,2013-05-02 06:56:00,
2013-05-02 02:01:00,66.4,62.7,30.01,East,98,6.0,6.0,88,0.00,,,0.00,WeatherCatV1.15B25,2013-05-02 07:01:00,
2013-05-02 02:06:00,66.4,62.4,30.01,ENE,69,4.0,9.0,87,0.00,,,0.00,WeatherCatV1.15B25,2013-05-02 07:06:00,
2013-05-02 02:11:00,66.4,62.4,30.01,ENE,75,5.0,7.0,87,0.00,,,0.00,WeatherCatV1.15B25,2013-05-02 07:11:00,
2013-05-02 02:16:00,66.3,62.3,30.01,ENE,78,3.0,7.0,87,0.00,,,0.00,WeatherCatV1.15B25,2013-05-02 07:16:00,
2013-05-02 02:21:00,66.2,62.2,30.01,ENE,72,3.0,5.0,87,0.00,,,0.00,WeatherCatV1.15B25,2013-05-02 07:21:00,
2013-05-02 02:26:00,66.2,62.2,30.01,East,87,8.0,8.0,87,0.00,,,0.00,WeatherCatV1.15B25,2013-05-02 07:26:00,
2013-05-02 02:31:00,66.1,62.1,30.01,East,98,6.0,7.0,87,0.00,,,0.00,WeatherCatV1.15B25,2013-05-02 07:31:00,
2013-05-02 02:36:00,66.1,62.1,30.01,East,86,3.0,7.0,87,0.00,,,0.00,WeatherCatV1.15B25,2013-05-02 07:36:00,
2013-05-02 02:41:00,66.0,62.0,30.01,East,91,2.0,7.0,87,0.00,,,0.00,WeatherCatV1.15B25,2013-05-02 07:41:00,
2013-05-02 02:46:00,66.0,62.0,30.01,East,89,5.0,6.0,87,0.00,,,0.00,WeatherCatV1.15B25,2013-05-02 07:46:00,
2013-05-02 02:51:00,66.0,62.0,30.01,ENE,74,4.0,7.0,87,0.00,,,0.00,WeatherCatV1.15B25,2013-05-02 07:51:00,
2013-05-02 02:56:00,65.9,61.9,30.01,East,86,3.0,6.0,87,0.00,,,0.00,WeatherCatV1.15B25,2013-05-02 07:56:00,
2013-05-02 03:01:00,65.8,61.8,30.01,ENE,78,0.0,3.0,87,0.00,,,0.00,WeatherCatV1.15B25,2013-05-02 08:01:00,
2013-05-02 03:06:00,65.7,62.0,30.00,ENE,77,1.0,2.0,88,0.00,,,0.00,WeatherCatV1.15B25,2013-05-02 08:06:00,
2013-05-02 03:11:00,65.7,61.7,30.01,East,91,5.0,5.0,87,0.00,,,0.00,WeatherCatV1.15B25,2013-05-02 08:11:00,
2013-05-02 03:16:00,65.6,61.9,30.00,East,80,0.0,5.0,88,0.00,,,0.00,WeatherCatV1.15B25,2013-05-02 08:16:00,
2013-05-02 03:21:00,65.6,61.9,30.00,NE,42,2.0,4.0,88,0.00,,,0.00,WeatherCatV1.15B25,2013-05-02 08:21:00,
2013-05-02 03:26:00,65.6,61.9,30.00,ENE,67,4.0,5.0,88,0.00,,,0.00,WeatherCatV1.15B25,2013-05-02 08:26:00,
2013-05-02 03:31:00,65.5,61.8,30.00,NE,53,3.0,4.0,88,0.00,,,0.00,WeatherCatV1.15B25,2013-05-02 08:31:00,
2013-05-02 03:36:00,65.5,61.8,30.00,ENE,59,1.0,5.0,88,0.00,,,0.00,WeatherCatV1.15B25,2013-05-02 08:36:00,
2013-05-02 03:41:00,65.4,61.7,30.00,ENE,64,2.0,3.0,88,0.00,,,0.00,WeatherCatV1.15B25,2013-05-02 08:41:00,
2013-05-02 03:46:00,65.4,61.7,30.01,NE,40,5.0,5.0,88,0.00,,,0.00,WeatherCatV1.15B25,2013-05-02 08:46:00,
2013-05-02 03:51:00,65.4,61.7,30.01,East,80,6.0,6.0,88,0.00,,,0.00,WeatherCatV1.15B25,2013-05-02 08:51:00,
2013-05-02 03:56:00,65.4,61.7,30.01,NE,51,5.0,5.0,88,0.00,,,0.00,WeatherCatV1.15B25,2013-05-02 08:56:00,
2013-05-02 04:01:00,65.5,61.8,30.01,ENE,57,3.0,4.0,88,0.00,,,0.00,WeatherCatV1.15B25,2013-05-02 09:01:00,
2013-05-02 04:06:00,65.4,61.4,30.01,NE,48,3.0,7.0,87,0.00,,,0.00,WeatherCatV1.15B25,2013-05-02 09:06:00,
2013-05-02 04:11:00,65.5,61.5,30.01,ENE,59,1.0,5.0,87,0.00,,,0.00,WeatherCatV1.15B25,2013-05-02 09:11:00,
2013-05-02 04:16:00,65.5,61.5,30.01,ENE,61,2.0,7.0,87,0.00,,,0.00,WeatherCatV1.15B25,2013-05-02 09:16:00,
2013-05-02 04:21:00,65.4,61.4,30.01,NE,50,3.0,8.0,87,0.00,,,0.00,WeatherCatV1.15B25,2013-05-02 09:21:00,
2013-05-02 04:26:00,65.4,61.4,30.01,ENE,59,2.0,4.0,87,0.00,,,0.00,WeatherCatV1.15B25,2013-05-02 09:26:00,
2013-05-02 04:31:00,65.4,61.4,30.01,ENE,62,4.0,5.0,87,0.00,,,0.00,WeatherCatV1.15B25,2013-05-02 09:31:00,
2013-05-02 04:36:00,65.4,61.4,30.02,ENE,68,3.0,5.0,87,0.00,,,0.00,WeatherCatV1.15B25,2013-05-02 09:36:00,
2013-05-02 04:41:00,65.4,61.4,30.02,East,98,2.0,5.0,87,0.00,,,0.00,WeatherCatV1.15B25,2013-05-02 09:41:00,
2013-05-02 04:46:00,65.4,61.4,30.02,ENE,65,2.0,3.0,87,0.00,,,0.00,WeatherCatV1.15B25,2013-05-02 09:46:00,
2013-05-02 04:51:00,65.4,61.4,30.02,NE,55,3.0,4.0,87,0.00,,,0.00,WeatherCatV1.15B25,2013-05-02 09:51:00,
2013-05-02 04:56:00,65.4,61.4,30.02,East,96,10.0,10.0,87,0.00,,,0.00,WeatherCatV1.15B25,2013-05-02 09:56:00,
2013-05-02 05:01:00,65.4,61.1,30.02,ENE,74,2.0,8.0,86,0.00,,,0.00,WeatherCatV1.15B25,2013-05-02 10:01:00,
2013-05-02 05:06:00,65.4,61.1,30.02,NE,52,6.0,6.0,86,0.00,,,0.00,WeatherCatV1.15B25,2013-05-02 10:06:00,
2013-05-02 05:11:00,65.4,61.1,30.03,ENE,74,5.0,9.0,86,0.00,,,0.00,WeatherCatV1.15B25,2013-05-02 10:11:00,
2013-05-02 05:16:00,65.4,61.1,30.03,East,82,6.0,8.0,86,0.00,,,0.00,WeatherCatV1.15B25,2013-05-02 10:16:00,
2013-05-02 05:21:00,65.4,61.1,30.03,ESE,120,4.0,9.0,86,0.00,,,0.00,WeatherCatV1.15B25,2013-05-02 10:21:00,
2013-05-02 05:26:00,65.3,61.0,30.03,ESE,116,4.0,8.0,86,0.00,,,0.00,WeatherCatV1.15B25,2013-05-02 10:26:00,
2013-05-02 05:31:00,65.3,61.0,30.03,ESE,107,4.0,9.0,86,0.00,,,0.00,WeatherCatV1.15B25,2013-05-02 10:31:00,
2013-05-02 05:36:00,65.3,60.7,30.03,ESE,112,3.0,7.0,85,0.00,,,0.00,WeatherCatV1.15B25,2013-05-02 10:36:00,
2013-05-02 05:41:00,65.2,60.9,30.03,ESE,106,3.0,7.0,86,0.00,,,0.00,WeatherCatV1.15B25,2013-05-02 10:41:00,
2013-05-02 05:46:00,65.1,60.8,30.03,East,98,3.0,6.0,86,0.00,,,0.00,WeatherCatV1.15B25,2013-05-02 10:46:00,
2013-05-02 05:51:00,65.0,60.4,30.03,ESE,109,7.0,13.0,85,0.00,,,0.00,WeatherCatV1.15B25,2013-05-02 10:51:00,
2013-05-02 05:56:00,65.0,60.4,30.03,ESE,119,3.0,7.0,85,0.00,,,0.00,WeatherCatV1.15B25,2013-05-02 10:56:00,
2013-05-02 06:01:00,65.0,60.7,30.03,East,100,7.0,7.0,86,0.00,,,0.00,WeatherCatV1.15B25,2013-05-02 11:01:00,
2013-05-02 06:06:00,64.8,60.5,30.03,ENE,75,3.0,6.0,86,0.00,,,0.00,WeatherCatV1.15B25,2013-05-02 11:06:00,
2013-05-02 06:11:00,64.8,60.5,30.04,East,85,6.0,8.0,86,0.00,,,0.00,WeatherCatV1.15B25,2013-05-02 11:11:00,
2013-05-02 06:16:00,64.7,60.4,30.04,East,92,6.0,7.0,86,0.00,,,0.00,WeatherCatV1.15B25,2013-05-02 11:16:00,
2013-05-02 06:21:00,64.6,60.6,30.04,East,79,2.0,4.0,87,0.00,,,0.00,WeatherCatV1.15B25,2013-05-02 11:21:00,
2013-05-02 06:26:00,64.5,60.5,30.05,East,96,7.0,8.0,87,0.00,,,0.00,WeatherCatV1.15B25,2013-05-02 11:26:00,
2013-05-02 06:31:00,64.5,60.2,30.05,ESE,107,5.0,8.0,86,0.00,,,0.00,WeatherCatV1.15B25,2013-05-02 11:31:00,
2013-05-02 06:36:00,64.3,60.3,30.05,East,82,9.0,9.0,87,0.00,,,0.01,WeatherCatV1.15B25,2013-05-02 11:36:00,
2013-05-02 06:41:00,63.9,60.3,30.05,ENE,69,4.0,8.0,88,0.00,,,0.01,WeatherCatV1.15B25,2013-05-02 11:41:00,
2013-05-02 06:46:00,63.6,60.3,30.05,East,94,5.0,7.0,89,0.06,,,0.02,WeatherCatV1.15B25,2013-05-02 11:46:00,
2013-05-02 06:51:00,63.4,60.4,30.05,East,80,2.0,7.0,90,0.06,,,0.02,WeatherCatV1.15B25,2013-05-02 11:51:00,
2013-05-02 06:56:00,63.2,60.2,30.05,East,88,2.0,3.0,90,0.06,,,0.02,WeatherCatV1.15B25,2013-05-02 11:56:00,
2013-05-02 07:01:00,63.2,60.5,30.06,ESE,111,2.0,4.0,91,0.04,,,0.02,WeatherCatV1.15B25,2013-05-02 12:01:00,
2013-05-02 07:06:00,63.1,60.4,30.06,East,87,2.0,6.0,91,0.04,,,0.03,WeatherCatV1.15B25,2013-05-02 12:06:00,
2013-05-02 07:11:00,63.1,60.4,30.05,ENE,67,0.0,4.0,91,0.04,,,0.03,WeatherCatV1.15B25,2013-05-02 12:11:00,
2013-05-02 07:16:00,63.1,60.7,30.06,East,83,3.0,3.0,92,0.04,,,0.03,WeatherCatV1.15B25,2013-05-02 12:16:00,
2013-05-02 07:21:00,63.2,60.5,30.06,NE,52,3.0,7.0,91,0.00,,,0.03,WeatherCatV1.15B25,2013-05-02 12:21:00,
2013-05-02 07:26:00,63.4,60.7,30.06,East,94,6.0,8.0,91,0.00,,,0.03,WeatherCatV1.15B25,2013-05-02 12:26:00,
2013-05-02 07:31:00,63.6,60.6,30.07,ENE,63,4.0,7.0,90,0.00,,,0.03,WeatherCatV1.15B25,2013-05-02 12:31:00,
2013-05-02 07:36:00,63.7,60.4,30.07,ENE,72,2.0,8.0,89,0.00,,,0.03,WeatherCatV1.15B25,2013-05-02 12:36:00,
2013-05-02 07:41:00,63.8,60.2,30.07,ESE,113,4.0,10.0,88,0.00,,,0.03,WeatherCatV1.15B25,2013-05-02 12:41:00,
2013-05-02 07:46:00,63.9,60.3,30.07,ENE,67,7.0,7.0,88,0.00,,,0.03,WeatherCatV1.15B25,2013-05-02 12:46:00,
2013-05-02 07:51:00,64.0,60.0,30.07,East,88,5.0,8.0,87,0.00,,,0.03,WeatherCatV1.15B25,2013-05-02 12:51:00,
2013-05-02 07:56:00,64.0,60.0,30.07,East,99,7.0,8.0,87,0.00,,,0.03,WeatherCatV1.15B25,2013-05-02 12:56:00,
2013-05-02 08:01:00,64.1,60.1,30.07,East,90,6.0,11.0,87,0.00,,,0.03,WeatherCatV1.15B25,2013-05-02 13:01:00,
2013-05-02 08:06:00,64.1,60.1,30.08,East,83,5.0,8.0,87,0.00,,,0.03,WeatherCatV1.15B25,2013-05-02 13:06:00,
2013-05-02 08:11:00,64.0,60.0,30.08,NE,53,3.0,5.0,87,0.00,,,0.03,WeatherCatV1.15B25,2013-05-02 13:11:00,
2013-05-02 08:16:00,64.0,60.0,30.08,East,80,6.0,10.0,87,0.00,,,0.03,WeatherCatV1.15B25,2013-05-02 13:16:00,
2013-05-02 08:21:00,64.0,60.0,30.08,East,81,7.0,10.0,87,0.00,,,0.03,WeatherCatV1.15B25,2013-05-02 13:21:00,
2013-05-02 08:26:00,64.0,60.0,30.08,ENE,59,4.0,8.0,87,0.00,,,0.03,WeatherCatV1.15B25,2013-05-02 13:26:00,
2013-05-02 08:31:00,64.0,60.4,30.08,ENE,67,4.0,9.0,88,0.00,,,0.03,WeatherCatV1.15B25,2013-05-02 13:31:00,
2013-05-02 08:36:00,64.0,60.4,30.08,NE,41,5.0,7.0,88,0.00,,,0.03,WeatherCatV1.15B25,2013-05-02 13:36:00,
2013-05-02 08:41:00,63.9,60.3,30.08,ENE,61,4.0,8.0,88,0.00,,,0.03,WeatherCatV1.15B25,2013-05-02 13:41:00,
2013-05-02 08:46:00,63.9,60.6,30.08,NE,44,7.0,7.0,89,0.00,,,0.03,WeatherCatV1.15B25,2013-05-02 13:46:00,
2013-05-02 08:51:00,63.8,60.5,30.08,ENE,60,8.0,8.0,89,0.00,,,0.03,WeatherCatV1.15B25,2013-05-02 13:51:00,
2013-05-02 08:56:00,63.8,60.2,30.08,NE,51,4.0,8.0,88,0.00,,,0.03,WeatherCatV1.15B25,2013-05-02 13:56:00,
2013-05-02 09:01:00,63.8,60.2,30.08,ENE,67,5.0,8.0,88,0.00,,,0.03,WeatherCatV1.15B25,2013-05-02 14:01:00,
2013-05-02 09:06:00,63.9,60.3,30.08,NE,35,7.0,9.0,88,0.00,,,0.03,WeatherCatV1.15B25,2013-05-02 14:06:00,
2013-05-02 09:11:00,63.9,60.3,30.08,ENE,65,3.0,9.0,88,0.00,,,0.03,WeatherCatV1.15B25,2013-05-02 14:11:00,
2013-05-02 09:16:00,63.9,60.3,30.08,NE,56,4.0,5.0,88,0.00,,,0.03,WeatherCatV1.15B25,2013-05-02 14:16:00,
2013-05-02 09:21:00,63.9,60.6,30.09,ENE,76,4.0,7.0,89,0.00,,,0.03,WeatherCatV1.15B25,2013-05-02 14:21:00,
2013-05-02 09:26:00,63.9,60.6,30.08,NE,51,8.0,9.0,89,0.00,,,0.03,WeatherCatV1.15B25,2013-05-02 14:26:00,
2013-05-02 09:31:00,63.9,60.6,30.08,NNE,32,5.0,11.0,89,0.00,,,0.03,WeatherCatV1.15B25,2013-05-02 14:31:00,
2013-05-02 09:36:00,64.0,60.7,30.08,ENE,74,10.0,12.0,89,0.00,,,0.03,WeatherCatV1.15B25,2013-05-02 14:36:00,
2013-05-02 09:41:00,64.1,60.8,30.08,NE,40,8.0,10.0,89,0.00,,,0.03,WeatherCatV1.15B25,2013-05-02 14:41:00,
2013-05-02 09:46:00,64.3,61.0,30.08,NE,50,5.0,7.0,89,0.00,,,0.03,WeatherCatV1.15B25,2013-05-02 14:46:00,
2013-05-02 09:51:00,64.5,61.2,30.08,ENE,68,8.0,11.0,89,0.00,,,0.03,WeatherCatV1.15B25,2013-05-02 14:51:00,
2013-05-02 09:56:00,64.7,61.4,30.08,ENE,77,11.0,11.0,89,0.00,,,0.03,WeatherCatV1.15B25,2013-05-02 14:56:00,
2013-05-02 10:01:00,65.0,61.4,30.08,ENE,71,4.0,9.0,88,0.00,,,0.03,WeatherCatV1.15B25,2013-05-02 15:01:00,
2013-05-02 10:06:00,65.3,61.6,30.08,ENE,71,4.0,7.0,88,0.00,,,0.03,WeatherCatV1.15B25,2013-05-02 15:06:00,
2013-05-02 10:11:00,65.5,61.5,30.08,ENE,71,2.0,9.0,87,0.00,,,0.03,WeatherCatV1.15B25,2013-05-02 15:11:00,
2013-05-02 10:16:00,65.9,62.2,30.08,ENE,70,7.0,10.0,88,0.00,,,0.03,WeatherCatV1.15B25,2013-05-02 15:16:00,
2013-05-02 10:21:00,66.2,62.2,30.08,East,85,3.0,7.0,87,0.00,,,0.03,WeatherCatV1.15B25,2013-05-02 15:21:00,
2013-05-02 10:26:00,66.4,62.1,30.08,ESE,103,7.0,12.0,86,0.00,,,0.03,WeatherCatV1.15B25,2013-05-02 15:26:00,
2013-05-02 10:31:00,66.6,62.3,30.08,ENE,67,3.0,7.0,86,0.00,,,0.03,WeatherCatV1.15B25,2013-05-02 15:31:00,
2013-05-02 10:36:00,66.7,62.0,30.08,East,83,6.0,12.0,85,0.00,,,0.03,WeatherCatV1.15B25,2013-05-02 15:36:00,
2013-05-02 10:41:00,66.7,62.0,30.08,East,87,5.0,8.0,85,0.00,,,0.03,WeatherCatV1.15B25,2013-05-02 15:41:00,
2013-05-02 10:46:00,66.9,62.2,30.08,East,92,8.0,13.0,85,0.00,,,0.03,WeatherCatV1.15B25,2013-05-02 15:46:00,
2013-05-02 10:51:00,66.9,62.2,30.08,ESE,115,7.0,9.0,85,0.00,,,0.03,WeatherCatV1.15B25,2013-05-02 15:51:00,
2013-05-02 10:56:00,67.0,62.3,30.08,ENE,78,5.0,8.0,85,0.00,,,0.03,WeatherCatV1.15B25,2013-05-02 15:56:00,
2013-05-02 11:01:00,67.0,62.3,30.08,ESE,121,5.0,7.0,85,0.00,,,0.03,WeatherCatV1.15B25,2013-05-02 16:01:00,
2013-05-02 11:06:00,67.0,62.3,30.08,East,101,6.0,10.0,85,0.00,,,0.03,WeatherCatV1.15B25,2013-05-02 16:06:00,
2013-05-02 11:11:00,66.9,62.2,30.08,East,81,7.0,9.0,85,0.00,,,0.03,WeatherCatV1.15B25,2013-05-02 16:11:00,
2013-05-02 11:16:00,66.8,62.1,30.08,ESE,111,7.0,8.0,85,0.00,,,0.03,WeatherCatV1.15B25,2013-05-02 16:16:00,
2013-05-02 11:21:00,66.8,62.1,30.08,ENE,59,7.0,7.0,85,0.00,,,0.03,WeatherCatV1.15B25,2013-05-02 16:21:00,
2013-05-02 11:26:00,66.7,62.0,30.08,East,88,6.0,8.0,85,0.00,,,0.03,WeatherCatV1.15B25,2013-05-02 16:26:00,
2013-05-02 11:31:00,66.7,62.0,30.08,ENE,68,5.0,10.0,85,0.00,,,0.03,WeatherCatV1.15B25,2013-05-02 16:31:00,
2013-05-02 11:36:00,66.6,61.6,30.08,East,90,7.0,10.0,84,0.00,,,0.03,WeatherCatV1.15B25,2013-05-02 16:36:00,
2013-05-02 11:41:00,66.6,61.6,30.08,ESE,115,5.0,8.0,84,0.00,,,0.03,WeatherCatV1.15B25,2013-05-02 16:41:00,
2013-05-02 11:46:00,66.6,61.9,30.08,ENE,78,8.0,9.0,85,0.00,,,0.03,WeatherCatV1.15B25,2013-05-02 16:46:00,
2013-05-02 11:51:00,66.5,61.8,30.08,ENE,74,4.0,10.0,85,0.00,,,0.03,WeatherCatV1.15B25,2013-05-02 16:51:00,
2013-05-02 11:56:00,66.5,61.8,30.08,East,94,5.0,8.0,85,0.00,,,0.03,WeatherCatV1.15B25,2013-05-02 16:56:00,
2013-05-02 12:01:00,66.6,62.3,30.08,East,88,6.0,7.0,86,0.00,,,0.03,WeatherCatV1.15B25,2013-05-02 17:01:00,
2013-05-02 12:06:00,66.6,61.9,30.08,NE,46,5.0,10.0,85,0.00,,,0.03,WeatherCatV1.15B25,2013-05-02 17:06:00,
2013-05-02 12:11:00,66.5,61.8,30.08,ENE,75,4.0,7.0,85,0.00,,,0.03,WeatherCatV1.15B25,2013-05-02 17:11:00,
2013-05-02 12:16:00,66.5,61.8,30.08,ENE,76,8.0,8.0,85,0.00,,,0.03,WeatherCatV1.15B25,2013-05-02 17:16:00,
2013-05-02 12:21:00,66.5,61.8,30.08,East,94,3.0,9.0,85,0.00,,,0.03,WeatherCatV1.15B25,2013-05-02 17:21:00,
2013-05-02 12:26:00,66.4,61.7,30.08,East,82,5.0,8.0,85,0.00,,,0.03,WeatherCatV1.15B25,2013-05-02 17:26:00,
2013-05-02 12:31:00,66.4,61.7,30.08,ENE,63,5.0,8.0,85,0.00,,,0.03,WeatherCatV1.15B25,2013-05-02 17:31:00,
2013-05-02 12:36:00,66.4,62.1,30.08,East,89,2.0,7.0,86,0.00,,,0.03,WeatherCatV1.15B25,2013-05-02 17:36:00,
2013-05-02 12:41:00,66.4,61.7,30.08,East,90,7.0,8.0,85,0.00,,,0.03,WeatherCatV1.15B25,2013-05-02 17:41:00,
2013-05-02 12:46:00,66.4,62.1,30.08,ENE,66,2.0,7.0,86,0.00,,,0.03,WeatherCatV1.15B25,2013-05-02 17:46:00,
2013-05-02 12:51:00,66.5,62.2,30.08,East,94,7.0,7.0,86,0.00,,,0.03,WeatherCatV1.15B25,2013-05-02 17:51:00,
2013-05-02 12:56:00,66.5,62.2,30.08,ENE,65,3.0,5.0,86,0.00,,,0.03,WeatherCatV1.15B25,2013-05-02 17:56:00,
2013-05-02 13:01:00,66.5,62.2,30.07,ENE,59,7.0,7.0,86,0.00,,,0.03,WeatherCatV1.15B25,2013-05-02 18:01:00,
2013-05-02 13:06:00,66.5,62.2,30.07,NE,38,4.0,8.0,86,0.00,,,0.03,WeatherCatV1.15B25,2013-05-02 18:06:00,
2013-05-02 13:11:00,66.4,62.1,30.07,East,82,5.0,7.0,86,0.00,,,0.03,WeatherCatV1.15B25,2013-05-02 18:11:00,
2013-05-02 13:16:00,66.4,62.1,30.07,ENE,68,4.0,8.0,86,0.00,,,0.03,WeatherCatV1.15B25,2013-05-02 18:16:00,
2013-05-02 13:21:00,66.3,62.0,30.07,East,88,8.0,8.0,86,0.00,,,0.03,WeatherCatV1.15B25,2013-05-02 18:21:00,
2013-05-02 13:27:00,66.3,62.0,30.07,East,82,3.0,5.0,86,0.00,,,0.03,WeatherCatV1.15B25,2013-05-02 18:27:00,
2013-05-02 13:32:00,66.3,62.0,30.07,East,80,5.0,8.0,86,0.00,,,0.03,WeatherCatV1.15B25,2013-05-02 18:32:00,
2013-05-02 13:37:00,66.2,61.9,30.07,East,89,9.0,9.0,86,0.00,,,0.03,WeatherCatV1.15B25,2013-05-02 18:37:00,
2013-05-02 13:42:00,66.0,61.7,30.07,East,89,2.0,7.0,86,0.00,,,0.03,WeatherCatV1.15B25,2013-05-02 18:42:00,
2013-05-02 13:47:00,65.9,61.9,30.07,ENE,68,4.0,6.0,87,0.00,,,0.03,WeatherCatV1.15B25,2013-05-02 18:47:00,
2013-05-02 13:52:00,66.0,62.0,30.07,ENE,76,2.0,5.0,87,0.00,,,0.03,WeatherCatV1.15B25,2013-05-02 18:52:00,
2013-05-02 13:57:00,66.0,61.7,30.07,East,86,5.0,8.0,86,0.00,,,0.03,WeatherCatV1.15B25,2013-05-02 18:57:00,
2013-05-02 14:02:00,66.0,62.0,30.07,East,98,3.0,5.0,87,0.00,,,0.03,WeatherCatV1.15B25,2013-05-02 19:02:00,
2013-05-02 14:07:00,66.1,62.1,30.07,East,84,5.0,5.0,87,0.00,,,0.03,WeatherCatV1.15B25,2013-05-02 19:07:00,
2013-05-02 14:12:00,66.1,62.1,30.07,East,91,5.0,6.0,87,0.00,,,0.03,WeatherCatV1.15B25,2013-05-02 19:12:00,
2013-05-02 14:17:00,66.2,62.2,30.07,East,82,2.0,3.0,87,0.00,,,0.03,WeatherCatV1.15B25,2013-05-02 19:17:00,
2013-05-02 14:22:00,66.4,62.4,30.07,ENE,57,1.0,7.0,87,0.00,,,0.03,WeatherCatV1.15B25,2013-05-02 19:22:00,
2013-05-02 14:27:00,66.6,62.6,30.06,ENE,69,3.0,7.0,87,0.00,,,0.03,WeatherCatV1.15B25,2013-05-02 19:27:00,
2013-05-02 14:32:00,66.5,62.2,30.06,ENE,76,3.0,5.0,86,0.00,,,0.03,WeatherCatV1.15B25,2013-05-02 19:32:00,
2013-05-02 14:37:00,66.5,62.5,30.06,ENE,78,4.0,7.0,87,0.00,,,0.03,WeatherCatV1.15B25,2013-05-02 19:37:00,
2013-05-02 14:42:00,66.6,62.3,30.06,East,97,3.0,7.0,86,0.00,,,0.03,WeatherCatV1.15B25,2013-05-02 19:42:00,
2013-05-02 14:47:00,66.6,62.3,30.06,ENE,57,2.0,6.0,86,0.00,,,0.03,WeatherCatV1.15B25,2013-05-02 19:47:00,
2013-05-02 14:52:00,66.7,62.7,30.06,ESE,104,3.0,5.0,87,0.00,,,0.03,WeatherCatV1.15B25,2013-05-02 19:52:00,
2013-05-02 14:57:00,66.7,62.4,30.06,ESE,111,3.0,7.0,86,0.00,,,0.03,WeatherCatV1.15B25,2013-05-02 19:57:00,
2013-05-02 15:02:00,66.8,62.8,30.06,ENE,78,2.0,3.0,87,0.00,,,0.03,WeatherCatV1.15B25,2013-05-02 20:02:00,
2013-05-02 15:07:00,66.8,62.5,30.06,ENE,65,3.0,7.0,86,0.00,,,0.03,WeatherCatV1.15B25,2013-05-02 20:07:00,
2013-05-02 15:12:00,66.7,62.7,30.06,East,90,5.0,7.0,87,0.00,,,0.03,WeatherCatV1.15B25,2013-05-02 20:12:00,
2013-05-02 15:17:00,66.6,62.6,30.06,ESE,105,7.0,7.0,87,0.00,,,0.03,WeatherCatV1.15B25,2013-05-02 20:17:00,
2013-05-02 15:22:00,66.5,62.5,30.05,East,88,5.0,7.0,87,0.00,,,0.03,WeatherCatV1.15B25,2013-05-02 20:22:00,
2013-05-02 15:27:00,66.3,62.3,30.05,ENE,66,5.0,7.0,87,0.00,,,0.03,WeatherCatV1.15B25,2013-05-02 20:27:00,
2013-05-02 15:32:00,66.3,62.3,30.05,East,88,2.0,6.0,87,0.00,,,0.03,WeatherCatV1.15B25,2013-05-02 20:32:00,
2013-05-02 15:37:00,66.2,62.2,30.05,East,90,1.0,3.0,87,0.00,,,0.03,WeatherCatV1.15B25,2013-05-02 20:37:00,
2013-05-02 15:42:00,66.2,62.5,30.05,ENE,61,5.0,5.0,88,0.00,,,0.03,WeatherCatV1.15B25,2013-05-02 20:42:00,
2013-05-02 15:47:00,66.2,62.9,30.05,NE,53,4.0,5.0,89,0.00,,,0.03,WeatherCatV1.15B25,2013-05-02 20:47:00,
2013-05-02 15:52:00,66.0,62.7,30.05,ENE,67,3.0,4.0,89,0.00,,,0.03,WeatherCatV1.15B25,2013-05-02 20:52:00,
2013-05-02 15:57:00,65.8,62.8,30.05,East,92,6.0,7.0,90,0.00,,,0.04,WeatherCatV1.15B25,2013-05-02 20:57:00,
2013-05-02 16:02:00,65.7,62.7,30.05,NE,55,3.0,3.0,90,0.00,,,0.04,WeatherCatV1.15B25,2013-05-02 21:02:00,
2013-05-02 16:07:00,65.7,62.7,30.04,ENE,78,5.0,6.0,90,0.00,,,0.04,WeatherCatV1.15B25,2013-05-02 21:07:00,
2013-05-02 16:12:00,65.7,63.0,30.04,East,83,1.0,5.0,91,0.00,,,0.04,WeatherCatV1.15B25,2013-05-02 21:12:00,
2013-05-02 16:17:00,65.6,62.9,30.04,East,86,3.0,3.0,91,0.00,,,0.04,WeatherCatV1.15B25,2013-05-02 21:17:00,
2013-05-02 16:22:00,65.6,62.9,30.04,East,82,0.0,3.0,91,0.00,,,0.04,WeatherCatV1.15B25,2013-05-02 21:22:00,
2013-05-02 16:27:00,65.6,62.9,30.04,ENE,70,2.0,6.0,91,0.00,,,0.04,WeatherCatV1.15B25,2013-05-02 21:27:00,
2013-05-02 16:32:00,65.6,62.9,30.05,ENE,61,3.0,5.0,91,0.00,,,0.04,WeatherCatV1.15B25,2013-05-02 21:32:00,
2013-05-02 16:37:00,65.6,62.9,30.05,ENE,67,3.0,6.0,91,0.00,,,0.04,WeatherCatV1.15B25,2013-05-02 21:37:00,
2013-05-02 16:42:00,65.5,63.1,30.05,East,82,2.0,5.0,92,0.00,,,0.05,WeatherCatV1.15B25,2013-05-02 21:42:00,
2013-05-02 16:47:00,65.4,63.0,30.05,ENE,67,2.0,4.0,92,0.00,,,0.05,WeatherCatV1.15B25,2013-05-02 21:47:00,
2013-05-02 16:52:00,65.4,63.0,30.04,NE,35,5.0,5.0,92,0.00,,,0.05,WeatherCatV1.15B25,2013-05-02 21:52:00,
2013-05-02 16:57:00,65.4,63.3,30.04,NE,35,2.0,2.0,93,0.00,,,0.05,WeatherCatV1.15B25,2013-05-02 21:57:00,
2013-05-02 17:02:00,65.3,63.2,30.04,NE,35,3.0,3.0,93,0.00,,,0.06,WeatherCatV1.15B25,2013-05-02 22:02:00,
2013-05-02 17:07:00,65.3,63.2,30.04,NE,35,3.0,5.0,93,0.00,,,0.06,WeatherCatV1.15B25,2013-05-02 22:07:00,
2013-05-02 17:12:00,65.3,63.2,30.04,NE,35,2.0,3.0,93,0.00,,,0.06,WeatherCatV1.15B25,2013-05-02 22:12:00,
2013-05-02 17:17:00,65.2,63.1,30.04,NE,36,3.0,3.0,93,0.00,,,0.07,WeatherCatV1.15B25,2013-05-02 22:17:00,
2013-05-02 17:22:00,65.3,63.2,30.04,NE,53,2.0,7.0,93,0.00,,,0.07,WeatherCatV1.15B25,2013-05-02 22:22:00,
2013-05-02 17:27:00,65.3,63.5,30.04,NE,35,4.0,5.0,94,0.00,,,0.07,WeatherCatV1.15B25,2013-05-02 22:27:00,
2013-05-02 17:32:00,65.2,63.1,30.04,NNE,28,5.0,5.0,93,0.00,,,0.07,WeatherCatV1.15B25,2013-05-02 22:32:00,
2013-05-02 17:33:00,65.2,63.1,30.03,NNE,29,3.0,5.0,93,0.00,,,0.07,WeatherCatV1.15B25,2013-05-02 22:33:00,
2013-05-02 17:38:00,65.2,63.4,30.04,NE,41,2.0,4.0,94,0.00,,,0.08,WeatherCatV1.15B25,2013-05-02 22:38:00,
2013-05-02 17:43:00,65.3,63.5,30.04,NE,41,4.0,4.0,94,0.00,,,0.08,WeatherCatV1.15B25,2013-05-02 22:43:00,
2013-05-02 17:48:00,65.3,63.5,30.04,NE,41,2.0,3.0,94,0.00,,,0.08,WeatherCatV1.15B25,2013-05-02 22:48:00,
2013-05-02 17:53:00,65.3,63.5,30.03,NE,41,1.0,4.0,94,0.00,,,0.08,WeatherCatV1.15B25,2013-05-02 22:53:00,
2013-05-02 17:58:00,65.3,63.5,30.03,NE,42,0.0,6.0,94,0.00,,,0.08,WeatherCatV1.15B25,2013-05-02 22:58:00,
2013-05-02 18:03:00,65.3,63.5,30.03,NNE,28,4.0,5.0,94,0.00,,,0.08,WeatherCatV1.15B25,2013-05-02 23:03:00,
2013-05-02 18:08:00,65.3,63.5,30.03,NNE,31,3.0,5.0,94,0.00,,,0.09,WeatherCatV1.15B25,2013-05-02 23:08:00,
2013-05-02 18:13:00,65.3,63.5,30.03,NE,46,2.0,4.0,94,0.00,,,0.09,WeatherCatV1.15B25,2013-05-02 23:13:00,
2013-05-02 18:18:00,65.3,63.5,30.03,NNE,22,1.0,4.0,94,0.00,,,0.09,WeatherCatV1.15B25,2013-05-02 23:18:00,
2013-05-02 18:23:00,65.3,63.5,30.03,NNE,33,2.0,4.0,94,0.00,,,0.09,WeatherCatV1.15B25,2013-05-02 23:23:00,
2013-05-02 18:28:00,65.3,63.8,30.03,NNE,33,1.0,4.0,95,0.00,,,0.09,WeatherCatV1.15B25,2013-05-02 23:28:00,
2013-05-02 18:33:00,65.3,63.8,30.03,NNE,33,3.0,3.0,95,0.00,,,0.10,WeatherCatV1.15B25,2013-05-02 23:33:00,
2013-05-02 18:38:00,65.2,63.7,30.03,NNE,33,0.0,2.0,95,0.00,,,0.10,WeatherCatV1.15B25,2013-05-02 23:38:00,
2013-05-02 18:43:00,65.3,63.8,30.03,NNE,33,2.0,3.0,95,0.00,,,0.10,WeatherCatV1.15B25,2013-05-02 23:43:00,
2013-05-02 18:46:00,65.3,63.8,30.03,NNE,33,2.0,2.0,95,0.00,,,0.10,WeatherCatV1.15B25,2013-05-02 23:46:00,
2013-05-02 18:51:00,65.3,63.8,30.03,NNE,33,0.0,2.0,95,0.00,,,0.10,WeatherCatV1.15B25,2013-05-02 23:51:00,
2013-05-02 18:56:00,65.2,63.7,30.03,NNE,33,0.0,2.0,95,0.00,,,0.10,WeatherCatV1.15B25,2013-05-02 23:56:00,
2013-05-02 19:01:00,65.2,63.7,30.03,NNE,33,1.0,4.0,95,0.00,,,0.10,WeatherCatV1.15B25,2013-05-03 00:01:00,
2013-05-02 19:06:00,65.2,63.7,30.03,NNE,33,3.0,3.0,95,0.00,,,0.11,WeatherCatV1.15B25,2013-05-03 00:06:00,
2013-05-02 19:11:00,65.2,63.7,30.03,NNE,32,3.0,4.0,95,0.00,,,0.11,WeatherCatV1.15B25,2013-05-03 00:11:00,
2013-05-02 19:16:00,65.2,63.7,30.03,NNE,32,2.0,3.0,95,0.00,,,0.11,WeatherCatV1.15B25,2013-05-03 00:16:00,
2013-05-02 19:21:00,65.1,63.6,30.03,NNE,32,2.0,3.0,95,0.00,,,0.11,WeatherCatV1.15B25,2013-05-03 00:21:00,
2013-05-02 19:26:00,65.1,63.9,30.03,NE,48,1.0,4.0,96,0.00,,,0.11,WeatherCatV1.15B25,2013-05-03 00:26:00,
2013-05-02 19:31:00,65.0,63.8,30.03,NE,41,0.0,3.0,96,0.00,,,0.11,WeatherCatV1.15B25,2013-05-03 00:31:00,
2013-05-02 19:36:00,65.0,63.8,30.03,NNE,26,2.0,2.0,96,0.00,,,0.12,WeatherCatV1.15B25,2013-05-03 00:36:00,
2013-05-02 19:41:00,65.0,63.8,30.03,NNE,13,0.0,3.0,96,0.00,,,0.12,WeatherCatV1.15B25,2013-05-03 00:41:00,
2013-05-02 19:46:00,65.0,63.8,30.03,NNE,12,0.0,2.0,96,0.00,,,0.12,WeatherCatV1.15B25,2013-05-03 00:46:00,
2013-05-02 19:51:00,65.0,63.8,30.03,NNE,12,0.0,2.0,96,0.00,,,0.13,WeatherCatV1.15B25,2013-05-03 00:51:00,
2013-05-02 19:56:00,64.9,63.7,30.03,NNE,12,2.0,3.0,96,0.00,,,0.13,WeatherCatV1.15B25,2013-05-03 00:56:00,
2013-05-02 20:01:00,64.9,63.7,30.03,NNE,13,0.0,3.0,96,0.00,,,0.13,WeatherCatV1.15B25,2013-05-03 01:01:00,
2013-05-02 20:06:00,64.8,63.6,30.03,NNE,12,2.0,3.0,96,0.05,,,0.14,WeatherCatV1.15B25,2013-05-03 01:06:00,
2013-05-02 20:11:00,64.8,63.6,30.03,NNE,13,2.0,3.0,96,0.07,,,0.15,WeatherCatV1.15B25,2013-05-03 01:11:00,
2013-05-02 20:16:00,64.7,63.5,30.03,NNE,13,2.0,2.0,96,0.07,,,0.15,WeatherCatV1.15B25,2013-05-03 01:16:00,
2013-05-02 20:21:00,64.7,63.8,30.03,NNE,13,0.0,0.0,97,0.07,,,0.16,WeatherCatV1.15B25,2013-05-03 01:21:00,
2013-05-02 20:26:00,64.7,63.8,30.03,NNE,13,0.0,2.0,97,0.07,,,0.16,WeatherCatV1.15B25,2013-05-03 01:26:00,
2013-05-02 20:31:00,64.6,63.7,30.03,NNE,13,0.0,2.0,97,0.05,,,0.16,WeatherCatV1.15B25,2013-05-03 01:31:00,
2013-05-02 20:36:00,64.5,63.6,30.03,NNE,12,0.0,1.0,97,0.04,,,0.17,WeatherCatV1.15B25,2013-05-03 01:36:00,
2013-05-02 20:41:00,64.4,63.5,30.03,NNE,12,0.0,0.0,97,0.04,,,0.17,WeatherCatV1.15B25,2013-05-03 01:41:00,
2013-05-02 20:46:00,64.4,63.5,30.03,NNE,13,0.0,0.0,97,0.04,,,0.17,WeatherCatV1.15B25,2013-05-03 01:46:00,
2013-05-02 20:51:00,64.4,63.5,30.03,NNE,13,0.0,0.0,97,0.04,,,0.18,WeatherCatV1.15B25,2013-05-03 01:51:00,
2013-05-02 20:56:00,64.4,63.5,30.03,NNE,13,0.0,0.0,97,0.04,,,0.18,WeatherCatV1.15B25,2013-05-03 01:56:00,
2013-05-02 21:01:00,64.4,63.5,30.03,NNE,12,0.0,0.0,97,0.05,,,0.19,WeatherCatV1.15B25,2013-05-03 02:01:00,
2013-05-02 21:06:00,64.4,63.5,30.03,NNE,13,0.0,0.0,97,0.05,,,0.19,WeatherCatV1.15B25,2013-05-03 02:06:00,
2013-05-02 21:11:00,64.3,63.4,30.03,NNE,13,0.0,0.0,97,0.05,,,0.19,WeatherCatV1.15B25,2013-05-03 02:11:00,
2013-05-02 21:16:00,64.3,63.4,30.04,NNE,12,0.0,0.0,97,0.05,,,0.20,WeatherCatV1.15B25,2013-05-03 02:16:00,
2013-05-02 21:21:00,64.3,63.4,30.04,NNE,13,0.0,1.0,97,0.05,,,0.20,WeatherCatV1.15B25,2013-05-03 02:21:00,
2013-05-02 21:26:00,64.3,63.4,30.04,NE,38,0.0,0.0,97,0.06,,,0.21,WeatherCatV1.15B25,2013-05-03 02:26:00,
2013-05-02 21:31:00,64.3,63.4,30.04,NE,38,0.0,0.0,97,0.06,,,0.21,WeatherCatV1.15B25,2013-05-03 02:31:00,
2013-05-02 21:36:00,64.3,63.4,30.03,NE,38,0.0,2.0,97,0.04,,,0.21,WeatherCatV1.15B25,2013-05-03 02:36:00,
2013-05-02 21:41:00,64.3,63.4,30.03,NE,38,0.0,0.0,97,0.04,,,0.22,WeatherCatV1.15B25,2013-05-03 02:41:00,
2013-05-02 21:46:00,64.3,63.4,30.03,NE,38,0.0,0.0,97,0.04,,,0.22,WeatherCatV1.15B25,2013-05-03 02:46:00,
2013-05-02 21:51:00,64.3,63.4,30.03,NE,38,0.0,1.0,97,0.05,,,0.23,WeatherCatV1.15B25,2013-05-03 02:51:00,
2013-05-02 21:56:00,64.2,63.3,30.03,NE,38,0.0,1.0,97,0.05,,,0.23,WeatherCatV1.15B25,2013-05-03 02:56:00,
2013-05-02 22:01:00,64.2,63.6,30.03,NE,38,0.0,0.0,98,0.05,,,0.24,WeatherCatV1.15B25,2013-05-03 03:01:00,
2013-05-02 22:06:00,64.2,63.6,30.03,NE,38,0.0,0.0,98,0.20,,,0.25,WeatherCatV1.15B25,2013-05-03 03:06:00,
2013-05-02 22:11:00,64.2,63.6,30.03,NE,38,0.0,0.0,98,0.12,,,0.26,WeatherCatV1.15B25,2013-05-03 03:11:00,
2013-05-02 22:16:00,64.2,63.6,30.03,NNE,33,0.0,2.0,98,0.12,,,0.27,WeatherCatV1.15B25,2013-05-03 03:16:00,
2013-05-02 22:21:00,64.2,63.6,30.03,NNE,33,0.0,0.0,98,0.08,,,0.28,WeatherCatV1.15B25,2013-05-03 03:21:00,
2013-05-02 22:26:00,64.1,63.5,30.03,NNE,33,0.0,0.0,98,0.08,,,0.28,WeatherCatV1.15B25,2013-05-03 03:26:00,
2013-05-02 22:31:00,64.2,63.6,30.03,NNE,33,0.0,0.0,98,0.08,,,0.29,WeatherCatV1.15B25,2013-05-03 03:31:00,
2013-05-02 22:36:00,64.2,63.6,30.03,NNE,33,0.0,0.0,98,0.06,,,0.29,WeatherCatV1.15B25,2013-05-03 03:36:00,
2013-05-02 22:41:00,64.1,63.5,30.02,NNE,33,0.0,1.0,98,0.04,,,0.29,WeatherCatV1.15B25,2013-05-03 03:41:00,
2013-05-02 22:46:00,64.2,63.6,30.02,NE,36,0.0,1.0,98,0.04,,,0.30,WeatherCatV1.15B25,2013-05-03 03:46:00,
2013-05-02 22:51:00,64.1,63.5,30.02,NE,36,0.0,0.0,98,0.04,,,0.30,WeatherCatV1.15B25,2013-05-03 03:51:00,
2013-05-02 22:56:00,64.1,63.5,30.02,NE,36,0.0,0.0,98,0.05,,,0.31,WeatherCatV1.15B25,2013-05-03 03:56:00,
2013-05-02 23:01:00,64.1,63.5,30.02,NE,36,0.0,0.0,98,0.05,,,0.31,WeatherCatV1.15B25,2013-05-03 04:01:00,
2013-05-02 23:06:00,64.1,63.5,30.02,NE,53,1.0,2.0,98,0.05,,,0.32,WeatherCatV1.15B25,2013-05-03 04:06:00,
2013-05-02 23:11:00,64.1,63.5,30.01,NE,53,0.0,0.0,98,0.05,,,0.32,WeatherCatV1.15B25,2013-05-03 04:11:00,
2013-05-02 23:16:00,64.1,63.5,30.01,NE,53,0.0,0.0,98,0.05,,,0.32,WeatherCatV1.15B25,2013-05-03 04:16:00,
2013-05-02 23:21:00,64.1,63.5,30.01,NE,53,0.0,0.0,98,0.05,,,0.33,WeatherCatV1.15B25,2013-05-03 04:21:00,
2013-05-02 23:26:00,64.1,63.5,30.01,NE,53,0.0,0.0,98,0.05,,,0.33,WeatherCatV1.15B25,2013-05-03 04:26:00,
2013-05-02 23:31:00,64.1,63.5,30.01,NE,53,0.0,0.0,98,0.04,,,0.33,WeatherCatV1.15B25,2013-05-03 04:31:00,
2013-05-02 23:36:00,64.1,63.5,30.01,NE,53,0.0,0.0,98,0.00,,,0.33,WeatherCatV1.15B25,2013-05-03 04:36:00,
2013-05-02 23:41:00,64.0,63.4,30.00,NE,53,0.0,0.0,98,0.00,,,0.34,WeatherCatV1.15B25,2013-05-03 04:41:00,
2013-05-02 23:46:00,64.0,63.4,30.00,NE,53,0.0,0.0,98,0.00,,,0.34,WeatherCatV1.15B25,2013-05-03 04:46:00,
2013-05-02 23:51:00,64.0,63.4,30.00,NE,53,0.0,1.0,98,0.05,,,0.35,WeatherCatV1.15B25,2013-05-03 04:51:00,
2013-05-02 23:56:00,64.0,63.4,30.00,NE,53,0.0,1.0,98,0.13,,,0.36,WeatherCatV1.15B25,2013-05-03 04:56:00,